DW9924 Weather Reports


Display with metric or nautical units.
time (UTC)temp
F
wind
direction
speed
MPH
gust
MPH
rain 1hr
in
rain 24hr
in
rain mn
in
humidity
%
barometer
mb
20260502223906 59 37 2.0 3.0 0.00 0.00 0.00 48 1021.7
20260502223407 59 33 2.0 3.0 0.00 0.00 0.00 49 1021.8
20260502221907 59 45 1.0 2.0 0.00 0.00 0.00 49 1022.1
20260502221405 59 38 1.0 3.0 0.00 0.00 0.00 50 1022.2
20260502220906 59 28 2.0 3.0 0.00 0.00 0.00 50 1022.3
20260502220406 59 31 2.0 3.0 0.00 0.00 0.00 51 1022.3
20260502214906 59 32 2.0 3.0 0.00 0.00 0.00 54 1022.3
20260502214405 59 44 2.0 3.0 0.00 0.00 0.00 54 1022.3
20260502213906 59 29 1.0 3.0 0.00 0.00 0.00 54 1022.4
20260502213407 59 36 2.0 3.0 0.00 0.00 0.00 53 1022.3
20260502211906 60 25 2.0 3.0 0.00 0.00 0.00 51 1022.3
20260502211407 60 30 2.0 3.0 0.00 0.00 0.00 49 1022.4
20260502210911 60 27 1.0 2.0 0.00 0.00 0.00 49 1022.4
20260502210409 60 27 1.0 3.0 0.00 0.00 0.00 48 1022.3
20260502204906 61 43 2.0 3.0 0.00 0.00 0.00 46 1022.2
20260502204408 61 49 1.0 3.0 0.00 0.00 0.00 47 1022.4
20260502203905 61 43 1.0 3.0 0.00 0.00 0.00 47 1022.3
20260502203406 60 35 2.0 3.0 0.00 0.00 0.00 47 1022.3
20260502201906 60 31 2.0 3.0 0.00 0.00 0.00 50 1022.6
20260502201421 60 29 2.0 3.0 0.00 0.00 0.00 50 1022.6
20260502200908 60 26 2.0 3.0 0.00 0.00 0.00 50 1022.5
20260502200406 60 19 2.0 3.0 0.00 0.00 0.00 50 1022.4
20260502193905 61 20 2.0 3.0 0.00 0.00 0.00 51 1022.1
20260502193405 61 25 1.0 3.0 0.00 0.00 0.00 52 1022.2
20260502191907 61 34 1.0 3.0 0.00 0.00 0.00 50 1022.1
20260502191406 61 25 1.0 3.0 0.00 0.00 0.00 50 1022.0
20260502190905 61 29 2.0 3.0 0.00 0.00 0.00 50 1022.0
20260502184905 62 34 1.0 3.0 0.00 0.00 0.00 47 1022.0
20260502184406 63 25 1.0 3.0 0.00 0.00 0.00 48 1022.0
20260502183906 63 22 1.0 2.0 0.00 0.00 0.00 49 1022.0
20260502183405 63 28 1.0 3.0 0.00 0.00 0.00 49 1022.1
20260502180905 64 5 0.0 0.0 0.00 0.00 0.00 57 1022.1
20260502180405 64 5 0.0 1.0 0.00 0.00 0.00 56 1022.1
20260502170405 66 202 1.0 3.0 0.00 0.00 0.00 57 1022.2
20260502163905 67 263 1.0 3.0 0.00 0.00 0.00 55 1022.4
20260502161905 67 235 1.0 3.0 0.00 0.00 0.00 55 1022.5
20260502161405 67 229 2.0 6.0 0.00 0.00 0.00 55 1022.6
20260502160905 68 211 2.0 3.0 0.00 0.00 0.00 53 1022.6
20260502160405 68 254 1.0 6.0 0.00 0.00 0.00 54 1022.6
20260502151905 69 261 1.0 3.0 0.00 0.00 0.00 51 1023.0
20260502151405 69 233 2.0 5.0 0.00 0.00 0.00 51 1023.1
20260502150905 69 216 2.0 7.0 0.00 0.00 0.00 49 1023.1
20260502150405 69 239 1.0 7.0 0.00 0.00 0.00 49 1023.2
20260502130404 68 235 3.0 6.0 0.00 0.00 0.00 46 1024.4
20260502123408 69 252 2.0 3.0 0.00 0.00 0.00 45 1024.6
20260502121905 69 261 1.0 3.0 0.00 0.00 0.00 44 1024.5
20260502121406 69 251 2.0 3.0 0.00 0.00 0.00 44 1024.6
20260502120908 69 232 2.0 5.0 0.00 0.00 0.00 43 1024.8
20260502120409 69 262 2.0 5.0 0.00 0.00 0.00 44 1024.8
20260502114905 68 229 2.0 3.0 0.00 0.00 0.00 42 1024.8
20260502113904 69 229 2.0 5.0 0.00 0.00 0.00 43 1025.1
20260502113404 68 222 3.0 5.0 0.00 0.00 0.00 42 1025.1
20260502111905 69 216 2.0 3.0 0.00 0.00 0.00 40 1025.3
20260502111404 69 235 1.0 5.0 0.00 0.00 0.00 41 1025.3
20260502110905 68 214 2.0 3.0 0.00 0.00 0.00 39 1025.4
20260502110405 68 244 2.0 6.0 0.00 0.00 0.00 39 1025.4
20260502104905 69 257 2.0 3.0 0.00 0.00 0.00 40 1025.5
20260502104405 68 215 2.0 3.0 0.00 0.00 0.00 38 1025.5
20260502103904 68 231 2.0 5.0 0.00 0.00 0.00 38 1025.6
20260502103405 68 222 2.0 3.0 0.00 0.00 0.00 40 1025.7
20260502101916 67 264 2.0 3.0 0.00 0.00 0.00 39 1025.9
20260502101404 68 238 3.0 5.0 0.00 0.00 0.00 38 1025.9
20260502100907 68 222 2.0 3.0 0.00 0.00 0.00 39 1026.1
20260502100404 68 211 1.0 3.0 0.00 0.00 0.00 38 1026.2
20260502091405 68 248 1.0 2.0 0.00 0.00 0.00 39 1026.7
20260502071405 66 228 1.0 3.0 0.00 0.00 0.00 48 1026.5
20260502070904 66 233 1.0 2.0 0.00 0.00 0.00 48 1026.6
20260502070411 66 188 0.0 2.0 0.00 0.00 0.00 48 1026.6
20260502064904 64 308 1.0 3.0 0.00 0.00 0.00 50 1026.5
20260502064405 63 310 1.0 2.0 0.00 0.00 0.00 52 1026.6
20260502063904 63 311 1.0 2.0 0.00 0.00 0.00 53 1026.5
20260502063404 62 321 1.0 3.0 0.00 0.00 0.00 54 1026.6
20260502061905 61 313 1.0 2.0 0.00 0.00 0.00 57 1026.6
20260502061420 60 15 1.0 3.0 0.00 0.00 0.00 59 1026.6
20260502060904 60 23 1.0 2.0 0.00 0.00 0.00 59 1026.5
20260502060404 60 24 2.0 3.0 0.00 0.00 0.00 59 1026.5
20260502054903 59 20 1.0 2.0 0.00 0.00 0.00 57 1026.6
20260502054404 59 22 2.0 3.0 0.00 0.00 0.00 57 1026.7
20260502053904 59 31 2.0 3.0 0.00 0.00 0.00 56 1026.6
20260502051919 59 26 2.0 3.0 0.00 0.00 0.00 53 1026.5
20260502051404 59 24 2.0 3.0 0.00 0.00 0.00 53 1026.4
20260502050903 58 17 2.0 3.0 0.00 0.00 0.00 52 1026.5
20260502050411 59 27 2.0 3.0 0.00 0.00 0.00 52 1026.5
20260502044907 58 25 2.0 3.0 0.00 0.00 0.00 52 1026.3
20260502044404 58 26 2.0 3.0 0.00 0.00 0.00 52 1026.3
20260502043903 58 25 2.0 3.0 0.00 0.00 0.00 51 1026.2
20260502043404 58 22 2.0 3.0 0.00 0.00 0.00 51 1026.4
20260502041910 58 20 2.0 3.0 0.00 0.00 0.00 50 1026.2
20260502041404 58 29 2.0 3.0 0.00 0.00 0.00 51 1026.4
20260502040904 58 59 2.0 3.0 0.00 0.00 0.00 50 1026.3
20260502040404 58 33 2.0 3.0 0.00 0.00 0.00 50 1026.2
20260502034903 58 29 2.0 2.0 0.00 0.00 0.00 50 1026.2
20260502034404 58 33 2.0 3.0 0.00 0.00 0.00 50 1026.1
20260502033403 58 41 2.0 3.0 0.00 0.00 0.00 50 1026.0
20260502031908 59 23 2.0 3.0 0.00 0.00 0.00 49 1026.0
20260502030905 59 20 2.0 3.0 0.00 0.00 0.00 49 1026.1
20260502030409 59 33 2.0 3.0 0.00 0.00 0.00 48 1026.1
20260502024906 58 12 2.0 3.0 0.00 0.00 0.00 51 1026.1
20260502024404 58 29 2.0 3.0 0.00 0.00 0.00 51 1026.1
20260502023906 59 25 2.0 3.0 0.00 0.00 0.00 50 1026.0
20260502023404 58 26 2.0 3.0 0.00 0.00 0.00 51 1026.1
20260502021906 58 24 2.0 3.0 0.00 0.00 0.00 51 1026.1
20260502021405 58 25 2.0 3.0 0.00 0.00 0.00 51 1026.1
20260502020403 58 26 2.0 3.0 0.00 0.00 0.00 50 1026.1
20260502014904 59 35 1.0 3.0 0.00 0.00 0.00 49 1026.1
20260502014404 60 25 2.0 3.0 0.00 0.00 0.00 47 1025.9
20260502013903 60 31 2.0 3.0 0.00 0.00 0.00 48 1026.0
20260502013403 60 20 2.0 3.0 0.00 0.00 0.00 47 1026.0
20260502011904 59 12 2.0 3.0 0.00 0.00 0.00 48 1026.0
20260502010904 60 30 2.0 3.0 0.00 0.00 0.00 49 1026.0
20260502010403 60 22 2.0 3.0 0.00 0.00 0.00 49 1026.0
20260502004904 59 3 3.0 3.0 0.00 0.00 0.00 52 1025.9
20260502004404 59 16 2.0 3.0 0.00 0.00 0.00 53 1026.0
20260502003904 59 28 2.0 3.0 0.00 0.00 0.00 51 1026.1
20260502003406 60 33 2.0 3.0 0.00 0.00 0.00 51 1026.0
20260502001905 60 16 2.0 3.0 0.00 0.00 0.00 49 1026.1
20260502001405 61 42 1.0 2.0 0.00 0.00 0.00 49 1026.2
20260502000903 61 46 2.0 3.0 0.00 0.00 0.00 49 1026.1
20260502000403 61 48 1.0 3.0 0.00 0.00 0.00 49 1026.1
20260501234903 61 39 2.0 3.0 0.00 0.00 0.00 47 1026.1
20260501234408 62 33 2.0 3.0 0.00 0.00 0.00 48 1026.1
20260501233905 62 50 1.0 3.0 0.00 0.00 0.00 45 1026.0
20260501231403 61 27 2.0 3.0 0.00 0.00 0.00 48 1025.9
20260501230903 61 16 2.0 3.0 0.00 0.00 0.00 48 1025.9
20260501224903 62 9 2.0 3.0 0.00 0.00 0.00 46 1025.9